weather.gov     
National Weather Service

Terminal Aerodrome Forecast
NWS Homepage
This page is being discontinued on March 12, 2014.
The same data is available at this site. Please update your bookmarks.
Thank you, and we apologize for the inconvenience.
Please send an email to SR-SRH.Webmaster@noaa.gov with any concerns.


Current Version
Previous Version:    01  02  03  04  05  06  07  08  09  10  11  12  13  14  15  16  17  18  19  20  21  22  23  24  25  26  27  28  29  30  
   31  
[Printable]
195
FTUS45 KCYS 302300
TAFLAR
TAF
KLAR 302320Z 3100/3124 16008KT P6SM -SHRA SCT014 BKN035
     FM310400 13007KT 5SM BR SCT005 OVC012
     FM310700 17007KT 1SM BR BKN005 OVC010
     FM311200 32008KT 5SM BR SCT015 BKN060
     FM311500 13008KT P6SM SCT020 BKN040=


U.S. Dept. of Commerce
NOAA National Weather Service
1325 East West Highway
Silver Spring, MD 20910
E-mail: w-nws.webmaster@noaa.gov
Page last modified: May 16, 2007
NATIONAL WEATHER SERVICE: for Safety, for Work, for Fun - FOR LIFE